User: anonymous   Login
Location: Unspecified
(0.0000°N, 0.0000°E)
Time: 18:29:27
(UTC+00:00)
Language:

CLOUDSAT - Orbit

View from above orbital plane
View from above orbital plane
View from above satellite
View from above satellite

Ground track
Ground track

The orbit data is extracted from the following two-line orbital elements,

1 29107U 06016A   18053.46067567  .00091116  00000-0  19638-1 0  9996
2 29107  98.2298 358.9832 0001927 143.7017 216.7900 14.57845112628884
Epoch (UTC): 22 February 2018 11:03:22
Eccentricity: 0.0001927
inclination: 98.2298°
perigee height: 699 km
apogee height: 701 km
right ascension of ascending node: 358.9832°
argument of perigee: 143.7017°
revolutions per day: 14.57845112
mean anomaly at epoch: 216.7900°
orbit number at epoch: 62888

The dashed part of the orbit path shows where the satellite is in the earth's shadow,  

DLR